Location: Recife
(8.0585°S, 34.8848°W)
Time: 21:30:09
(UTC-03:00)

Vanguard 1 Rocket - Pass Details

Date: 18 April 2026
Orbit: 655 x 4212 km, 34.3° (Epoch: 12 May)

Event Time Altitude Azimuth Distance (km) Brightness Sun altitude
Rises 07:56:58 0° 272° (W) 3,516 10.0 36.3°
Reaches altitude 10° 08:00:48 10° 249° (WSW) 2,255 9.0 37.2°
Maximum altitude 08:03:39 15° 212° (SSW) 1,779 8.7 37.9°
Drops below altitude 10° 08:06:19 10° 174° (S) 2,060 9.2 38.5°
Sets 08:09:33 0° 149° (SSE) 3,039 10.2 39.2°
